Location: Saint-Palais-sur-Mer
(45.6429°N, 1.0859°W)
Time: 01:05:28
(UTC+01:00)

Tiros 1 despin weight - Pass Details

Date: 10 February 2026
Orbit: 556 x 593 km, 48.2° (Epoch: 13 March)

Event Time Altitude Azimuth Distance (km) Brightness Sun altitude
Rises 19:25:58 0° 236° (WSW) 2,723 ? -11.4°
Reaches altitude 10° 19:28:14 10° 233° (SW) 1,831 ? -11.7°
Maximum altitude 19:32:21 60° 154° (SSE) 638 ? -12.5°
Enters shadow 19:35:03 20° 79° (E) 1,300 ? -12.9°
Drops below altitude 10° 19:36:29 10° 74° (ENE) 1,845 - -13.2°
Sets 19:38:46 0° 71° (ENE) 2,746 - -13.6°
